{"data":{"norad_id":59888,"epoch":"2026-05-25T02:51:42.755904Z","epoch_age_seconds":64465,"freshness":"FRESH","line1":"1 59888U 24100D   26145.11924486  .00007355  00000+0  27643-3 0  9992","line2":"2 59888  43.0013  53.9491 0001100 268.1823  91.8903 15.27592029112741","mean_motion":15.27592029,"eccentricity":0.00011,"inclination_deg":43.0013,"raan_deg":53.9491,"arg_perigee_deg":268.1823,"mean_anomaly_deg":91.8903,"bstar":0.00027643,"rev_number":11274,"period_min":94.266006411585,"perigee_km":482.25835061412,"apogee_km":483.76780363109,"semimajor_km":6861.1500771226,"source":"CELESTRAK","updated_at":"2026-05-25T13:38:19.115904Z"}}